This is the latest recevied weather packets stored in our database for station/object N1ORT. If no packets are shown the sender has not sent any weather packets the latest 10 day(s).
| Time | Temp. | Humidity | Pressure | Rain* | Wind** | Luminosity | Snow |
|---|---|---|---|---|---|---|---|
| 1777837699 | 10.56° C | 46% | 1004.1 hPa | 0 mm | - | 232 W/m² | - |
| 1777837394 | 10.56° C | 45% | 1004 hPa | 0 mm | - | 125 W/m² | - |
| 1777837091 | 11.67° C | 44% | 1004 hPa | 0 mm | - | 170 W/m² | - |
| 1777836787 | 11.67° C | 45% | 1003.9 hPa | 0 mm | - | 256 W/m² | - |
| 1777836483 | 11.11° C | 45% | 1004.1 hPa | 0 mm | - | 274 W/m² | - |
| 1777836178 | 11.67° C | 45% | 1003.6 hPa | 0 mm | - | 334 W/m² | - |
| 1777835875 | 11.67° C | 44% | 1004 hPa | 0 mm | - | 425 W/m² | - |
| 1777835572 | 11.67° C | 45% | 1003.9 hPa | 0 mm | - | 420 W/m² | - |
| 1777835269 | 11.67° C | 46% | 1004 hPa | 0 mm | - | 367 W/m² | - |
| 1777834966 | 11.67° C | 45% | 1003.9 hPa | 0 mm | - | 365 W/m² | - |
| 1777834663 | 11.11° C | 46% | 1004.1 hPa | 0 mm | - | 366 W/m² | - |
| 1777834358 | 11.11° C | 48% | 1004.1 hPa | 0 mm | - | 354 W/m² | - |
| 1777834053 | 11.11° C | 47% | 1004.2 hPa | 0 mm | - | 376 W/m² | - |
| 1777833750 | 11.11° C | 45% | 1004.3 hPa | 0 mm | - | 494 W/m² | - |
| 1777833446 | 11.11° C | 47% | 1004.1 hPa | 0 mm | - | 503 W/m² | - |
| 1777833143 | 10.56° C | 48% | 1004.2 hPa | 0 mm | - | 455 W/m² | - |
| 1777832841 | 10.56° C | 48% | 1004.3 hPa | 0 mm | - | 510 W/m² | - |
| 1777832540 | 10.56° C | 51% | 1004.5 hPa | 0 mm | - | 567 W/m² | - |
| 1777832236 | 10° C | 52% | 1004.6 hPa | 0 mm | - | 450 W/m² | - |
| 1777831933 | 9.44° C | 54% | 1004.3 hPa | 0 mm | - | 267 W/m² | - |
| 1777831629 | 9.44° C | 56% | 1004.6 hPa | 0 mm | - | 143 W/m² | - |
| 1777831328 | 9.44° C | 59% | 1004.5 hPa | 0 mm | - | 140 W/m² | - |
| 1777831024 | 10° C | 57% | 1004.3 hPa | 0 mm | - | 116 W/m² | - |
| 1777830722 | 10° C | 55% | 1004.3 hPa | 0 mm | - | 136 W/m² | - |
| 1777830418 | 10° C | 55% | 1004.2 hPa | 0 mm | - | 153 W/m² | - |
* Rain latest hour (hover to see other rain measurements)
** Current wind speed in m/s (hover to see current wind gust speed)